Torna al catalogo

STARLINK-30390

AttivoComunicazioniVLEO
NORAD 57819·PAYLOAD·🇺🇸 United States

Lanciato Sep 9, 2023 da Cape Canaveral Space Force Station

Loading…

Prossimi Passaggi (prossime 24 ore)

TLE

AggiornatoSource: CelesTrak SupGP

Epoca: Sep 15, 2026, 01:38 UTC

1 57819C 23138M   26258.06854167 -.00016086  00000+0 -58260-3 0  2581
2 57819  42.9997 245.0532 0001450 261.9462 215.3704 15.27588622    12

Traccia STARLINK-30390 in tempo reale con AllMySat

Download on the App Store